Year,Month,Day,Hour,Minute,Value (Times are PST for temperature in C)
2007,08,16,00,00,17.40
2007,08,16,00,01,17.50
2007,08,16,00,02,17.70
2007,08,16,00,03,17.70
2007,08,16,00,04,17.80
2007,08,16,00,05,17.80
2007,08,16,00,06,17.80
2007,08,16,00,07,17.90
2007,08,16,00,08,17.90
2007,08,16,00,09,17.90
2007,08,16,00,10,17.90
2007,08,16,00,11,17.90
2007,08,16,00,12,17.90
2007,08,16,00,13,17.90
2007,08,16,00,14,17.90
2007,08,16,00,15,17.90
2007,08,16,00,16,17.80
2007,08,16,00,17,17.80
2007,08,16,00,18,17.80
2007,08,16,00,19,17.80
2007,08,16,00,20,17.80
2007,08,16,00,21,17.80
2007,08,16,00,22,17.80
2007,08,16,00,23,17.80
2007,08,16,00,24,17.70
2007,08,16,00,25,17.70
2007,08,16,00,26,17.70
2007,08,16,00,27,17.70
2007,08,16,00,28,17.70
2007,08,16,00,29,17.60
2007,08,16,00,30,17.60
2007,08,16,00,31,17.50
2007,08,16,00,32,17.40
2007,08,16,00,33,17.40
2007,08,16,00,34,17.30
2007,08,16,00,35,17.20
2007,08,16,00,36,17.10
2007,08,16,00,37,17.10
2007,08,16,00,38,17.00
2007,08,16,00,39,17.00
2007,08,16,00,40,16.90
2007,08,16,00,41,16.90
2007,08,16,00,42,16.90
2007,08,16,00,43,16.80
2007,08,16,00,44,16.70
2007,08,16,00,45,16.70
2007,08,16,00,46,16.70
2007,08,16,00,47,16.70
2007,08,16,00,48,16.70
2007,08,16,00,49,16.70
2007,08,16,00,50,16.70
2007,08,16,00,51,16.60
2007,08,16,00,52,16.60
2007,08,16,00,53,16.60
2007,08,16,00,54,16.40
2007,08,16,00,55,16.40
2007,08,16,00,56,16.40
2007,08,16,00,57,16.40
2007,08,16,00,58,16.30
2007,08,16,00,59,16.30
2007,08,16,01,00,16.30
2007,08,16,01,01,16.20
2007,08,16,01,02,16.10
2007,08,16,01,03,16.10
2007,08,16,01,04,16.10
2007,08,16,01,05,16.00
2007,08,16,01,06,15.90
2007,08,16,01,07,15.90
2007,08,16,01,08,15.90
2007,08,16,01,09,15.80
2007,08,16,01,10,15.80
2007,08,16,01,11,15.80
2007,08,16,01,12,15.80
2007,08,16,01,13,15.80
2007,08,16,01,14,15.80
2007,08,16,01,15,15.80
2007,08,16,01,16,15.80
2007,08,16,01,17,15.80
2007,08,16,01,18,15.80
2007,08,16,01,19,15.80
2007,08,16,01,20,15.80
2007,08,16,01,21,15.80
2007,08,16,01,22,15.80
2007,08,16,01,23,15.80
2007,08,16,01,24,15.80
2007,08,16,01,25,15.80
2007,08,16,01,26,15.80
2007,08,16,01,27,15.80
2007,08,16,01,28,15.80
2007,08,16,01,29,15.80
2007,08,16,01,30,15.80
2007,08,16,01,31,15.80
2007,08,16,01,32,15.80
2007,08,16,01,33,15.80
2007,08,16,01,34,15.70
2007,08,16,01,35,15.70
2007,08,16,01,36,15.70
2007,08,16,01,37,15.60
2007,08,16,01,38,15.60
2007,08,16,01,39,15.60
2007,08,16,01,40,15.50
2007,08,16,01,41,15.50
2007,08,16,01,42,15.50
2007,08,16,01,43,15.50
2007,08,16,01,44,15.40
2007,08,16,01,45,15.40
2007,08,16,01,46,15.40
2007,08,16,01,47,15.30
2007,08,16,01,48,15.30
2007,08,16,01,49,15.30
2007,08,16,01,50,15.30
2007,08,16,01,51,15.30
2007,08,16,01,52,15.20
2007,08,16,01,53,15.20
2007,08,16,01,54,15.10
2007,08,16,01,55,15.10
2007,08,16,01,56,15.10
2007,08,16,01,57,15.00
2007,08,16,01,58,15.00
2007,08,16,01,59,15.00
2007,08,16,02,00,15.00
2007,08,16,02,01,14.90
2007,08,16,02,02,14.90
2007,08,16,02,03,14.90
2007,08,16,02,04,14.90
2007,08,16,02,05,14.90
2007,08,16,02,06,14.90
2007,08,16,02,07,14.90
2007,08,16,02,08,14.90
2007,08,16,02,09,14.80
2007,08,16,02,10,14.80
2007,08,16,02,11,14.80
2007,08,16,02,12,14.80
2007,08,16,02,13,14.80
2007,08,16,02,14,14.80
2007,08,16,02,15,14.80
2007,08,16,02,16,14.80
2007,08,16,02,17,14.80
2007,08,16,02,18,14.70
2007,08,16,02,19,14.70
2007,08,16,02,20,14.70
2007,08,16,02,21,14.60
2007,08,16,02,22,14.60
2007,08,16,02,23,14.60
2007,08,16,02,24,14.60
2007,08,16,02,25,14.60
2007,08,16,02,26,14.60
2007,08,16,02,27,14.50
2007,08,16,02,28,14.50
2007,08,16,02,29,14.50
2007,08,16,02,30,14.50
2007,08,16,02,31,14.50
2007,08,16,02,32,14.50
2007,08,16,02,33,14.50
2007,08,16,02,34,14.50
2007,08,16,02,35,14.50
2007,08,16,02,36,14.50
2007,08,16,02,37,14.50
2007,08,16,02,38,14.50
2007,08,16,02,39,14.50
2007,08,16,02,40,14.40
2007,08,16,02,41,14.40
2007,08,16,02,42,14.40
2007,08,16,02,43,14.40
2007,08,16,02,44,14.40
2007,08,16,02,45,14.30
2007,08,16,02,46,14.30
2007,08,16,02,47,14.30
2007,08,16,02,48,14.30
2007,08,16,02,49,14.30
2007,08,16,02,50,14.20
2007,08,16,02,51,14.20
2007,08,16,02,52,14.20
2007,08,16,02,53,14.20
2007,08,16,02,54,14.20
2007,08,16,02,55,14.20
2007,08,16,02,56,14.20
2007,08,16,02,57,14.20
2007,08,16,02,58,14.10
2007,08,16,02,59,14.10
2007,08,16,03,00,14.10
2007,08,16,03,01,14.00
2007,08,16,03,02,14.00
2007,08,16,03,03,14.00
2007,08,16,03,04,14.00
2007,08,16,03,05,13.90
2007,08,16,03,06,13.90
2007,08,16,03,07,13.90
2007,08,16,03,08,13.80
2007,08,16,03,09,13.80
2007,08,16,03,10,13.80
2007,08,16,03,11,13.70
2007,08,16,03,12,13.70
2007,08,16,03,13,13.70
2007,08,16,03,14,13.70
2007,08,16,03,15,13.70
2007,08,16,03,16,13.70
2007,08,16,03,17,13.70
2007,08,16,03,18,13.70
2007,08,16,03,19,13.70
2007,08,16,03,20,13.70
2007,08,16,03,21,13.70
2007,08,16,03,22,13.70
2007,08,16,03,23,13.70
2007,08,16,03,24,13.70
2007,08,16,03,25,13.70
2007,08,16,03,26,13.70
2007,08,16,03,27,13.70
2007,08,16,03,28,13.60
2007,08,16,03,29,13.60
2007,08,16,03,30,13.60
2007,08,16,03,31,13.60
2007,08,16,03,32,13.60
2007,08,16,03,33,13.60
2007,08,16,03,34,13.60
2007,08,16,03,35,13.50
2007,08,16,03,36,13.50
2007,08,16,03,37,13.50
2007,08,16,03,38,13.50
2007,08,16,03,39,13.50
2007,08,16,03,40,13.50
2007,08,16,03,41,13.50
2007,08,16,03,42,13.50
2007,08,16,03,43,13.50
2007,08,16,03,44,13.50
2007,08,16,03,45,13.50
2007,08,16,03,46,13.50
2007,08,16,03,47,13.50
2007,08,16,03,48,13.50
2007,08,16,03,49,13.50
2007,08,16,03,50,13.50
2007,08,16,03,51,13.50
2007,08,16,03,52,13.50
2007,08,16,03,53,13.50
2007,08,16,03,54,13.50
2007,08,16,03,55,13.50
2007,08,16,03,56,13.50
2007,08,16,03,57,13.50
2007,08,16,03,58,13.50
2007,08,16,03,59,13.50
2007,08,16,04,00,13.50
2007,08,16,04,01,13.50
2007,08,16,04,02,13.50
2007,08,16,04,03,13.50
2007,08,16,04,04,13.50
2007,08,16,04,05,13.50
2007,08,16,04,06,13.50
2007,08,16,04,07,13.50
2007,08,16,04,08,13.50
2007,08,16,04,09,13.50
2007,08,16,04,10,13.50
2007,08,16,04,11,13.40
2007,08,16,04,12,13.40
2007,08,16,04,13,13.40
2007,08,16,04,14,13.40
2007,08,16,04,15,13.40
2007,08,16,04,16,13.30
2007,08,16,04,17,13.30
2007,08,16,04,18,13.30
2007,08,16,04,19,13.30
2007,08,16,04,20,13.30
2007,08,16,04,21,13.30
2007,08,16,04,22,13.30
2007,08,16,04,23,13.30
2007,08,16,04,24,13.30
2007,08,16,04,25,13.30
2007,08,16,04,26,13.30
2007,08,16,04,27,13.40
2007,08,16,04,28,13.40
2007,08,16,04,29,13.50
2007,08,16,04,30,13.50
2007,08,16,04,31,13.50
2007,08,16,04,32,13.50
2007,08,16,04,33,13.50
2007,08,16,04,34,13.50
2007,08,16,04,35,13.50
2007,08,16,04,36,13.50
2007,08,16,04,37,13.50
2007,08,16,04,38,13.60
2007,08,16,04,39,13.60
2007,08,16,04,40,13.60
2007,08,16,04,41,13.70
2007,08,16,04,42,13.70
2007,08,16,04,43,13.80
2007,08,16,04,44,14.10
2007,08,16,04,45,14.60
2007,08,16,04,46,15.10
2007,08,16,04,47,15.50
2007,08,16,04,48,15.80
2007,08,16,04,49,16.10
2007,08,16,04,50,16.30
2007,08,16,04,51,16.40
2007,08,16,04,52,16.60
2007,08,16,04,53,16.70
2007,08,16,04,54,16.80
2007,08,16,04,55,16.80
2007,08,16,04,56,16.90
2007,08,16,04,57,16.90
2007,08,16,04,58,17.00
2007,08,16,04,59,17.00
2007,08,16,05,00,17.00
2007,08,16,05,01,17.00
2007,08,16,05,02,17.00
2007,08,16,05,03,17.00
2007,08,16,05,04,17.00
2007,08,16,05,05,17.00
2007,08,16,05,06,17.00
2007,08,16,05,07,17.00
2007,08,16,05,08,17.00
2007,08,16,05,09,17.00
2007,08,16,05,10,17.00
2007,08,16,05,11,17.00
2007,08,16,05,12,16.90
2007,08,16,05,13,16.90
2007,08,16,05,14,16.90
2007,08,16,05,15,16.80
2007,08,16,05,16,16.80
2007,08,16,05,17,16.70
2007,08,16,05,18,16.60
2007,08,16,05,19,16.50
2007,08,16,05,20,16.40
2007,08,16,05,21,16.40
2007,08,16,05,22,16.30
2007,08,16,05,23,16.30
2007,08,16,05,24,16.30
2007,08,16,05,25,16.20
2007,08,16,05,26,16.20
2007,08,16,05,27,16.10
2007,08,16,05,28,16.10
2007,08,16,05,29,16.10
2007,08,16,05,30,16.00
2007,08,16,05,31,15.90
2007,08,16,05,32,15.80
2007,08,16,05,33,15.80
2007,08,16,05,34,15.70
2007,08,16,05,35,15.70
2007,08,16,05,36,15.60
2007,08,16,05,37,15.60
2007,08,16,05,38,15.60
2007,08,16,05,39,15.50
2007,08,16,05,40,15.50
2007,08,16,05,41,15.50
2007,08,16,05,42,15.50
2007,08,16,05,43,15.50
2007,08,16,05,44,15.50
2007,08,16,05,45,15.50
2007,08,16,05,46,15.50
2007,08,16,05,47,15.50
2007,08,16,05,48,15.50
2007,08,16,05,49,15.50
2007,08,16,05,50,15.50
2007,08,16,05,51,15.50
2007,08,16,05,52,15.50
2007,08,16,05,53,15.50
2007,08,16,05,54,15.50
2007,08,16,05,55,15.50
2007,08,16,05,56,15.50
2007,08,16,05,57,15.40
2007,08,16,05,58,15.40
2007,08,16,05,59,15.40
2007,08,16,06,00,15.40
2007,08,16,06,01,15.40
2007,08,16,06,02,15.30
2007,08,16,06,03,15.30
2007,08,16,06,04,15.30
2007,08,16,06,05,15.30
2007,08,16,06,06,15.30
2007,08,16,06,07,15.20
2007,08,16,06,08,15.20
2007,08,16,06,09,15.20
2007,08,16,06,10,15.10
2007,08,16,06,11,15.10
2007,08,16,06,12,15.00
2007,08,16,06,13,15.00
2007,08,16,06,14,15.00
2007,08,16,06,15,15.00
2007,08,16,06,16,14.90
2007,08,16,06,17,14.90
2007,08,16,06,18,14.90
2007,08,16,06,19,14.90
2007,08,16,06,20,14.90
2007,08,16,06,21,14.90
2007,08,16,06,22,14.90
2007,08,16,06,23,14.80
2007,08,16,06,24,14.80
2007,08,16,06,25,14.80
2007,08,16,06,26,14.80
2007,08,16,06,27,14.80
2007,08,16,06,28,14.80
2007,08,16,06,29,14.80
2007,08,16,06,30,14.80
2007,08,16,06,31,14.80
2007,08,16,06,32,14.80
2007,08,16,06,33,14.80
2007,08,16,06,34,14.90
2007,08,16,06,35,14.90
2007,08,16,06,36,14.90
2007,08,16,06,37,14.90
2007,08,16,06,38,14.90
2007,08,16,06,39,14.90
2007,08,16,06,40,14.90
2007,08,16,06,41,14.90
2007,08,16,06,42,14.80
2007,08,16,06,43,14.80
2007,08,16,06,44,14.90
2007,08,16,06,45,14.90
2007,08,16,06,46,14.90
2007,08,16,06,47,15.00
2007,08,16,06,48,15.10
2007,08,16,06,49,15.10
2007,08,16,06,50,15.20
2007,08,16,06,51,15.50
2007,08,16,06,52,15.80
2007,08,16,06,53,16.00
2007,08,16,06,54,16.20
2007,08,16,06,55,16.40
2007,08,16,06,56,16.50
2007,08,16,06,57,16.60
2007,08,16,06,58,16.70
2007,08,16,06,59,16.70
2007,08,16,07,00,16.80
2007,08,16,07,01,16.80
2007,08,16,07,02,16.80
2007,08,16,07,03,16.90
2007,08,16,07,04,16.90
2007,08,16,07,05,16.90
2007,08,16,07,06,17.00
2007,08,16,07,07,17.00
2007,08,16,07,08,17.10
2007,08,16,07,09,17.10
2007,08,16,07,10,17.10
2007,08,16,07,11,17.10
2007,08,16,07,12,17.20
2007,08,16,07,13,17.30
2007,08,16,07,14,17.30
2007,08,16,07,15,17.30
2007,08,16,07,16,17.40
2007,08,16,07,17,17.50
2007,08,16,07,18,17.60
2007,08,16,07,19,17.60
2007,08,16,07,20,17.70
2007,08,16,07,21,17.70
2007,08,16,07,22,17.80
2007,08,16,07,23,17.80
2007,08,16,07,24,17.80
2007,08,16,07,25,17.80
2007,08,16,07,26,17.90
2007,08,16,07,27,17.90
2007,08,16,07,28,17.90
2007,08,16,07,29,17.90
2007,08,16,07,30,17.90
2007,08,16,07,31,17.90
2007,08,16,07,32,17.90
2007,08,16,07,33,17.90
2007,08,16,07,34,17.90
2007,08,16,07,35,17.90
2007,08,16,07,36,17.90
2007,08,16,07,37,17.90
2007,08,16,07,38,17.90
2007,08,16,07,39,17.90
2007,08,16,07,40,17.90
2007,08,16,07,41,17.90
2007,08,16,07,42,17.90
2007,08,16,07,43,17.90
2007,08,16,07,44,17.90
2007,08,16,07,45,17.90
2007,08,16,07,46,17.90
2007,08,16,07,47,17.90
2007,08,16,07,48,17.90
2007,08,16,07,49,17.90
2007,08,16,07,50,17.90
2007,08,16,07,51,17.90
2007,08,16,07,52,17.90
2007,08,16,07,53,17.90
2007,08,16,07,54,17.90
2007,08,16,07,55,17.90
2007,08,16,07,56,17.90
2007,08,16,07,57,17.90
2007,08,16,07,58,17.90
2007,08,16,07,59,17.90
2007,08,16,08,00,17.90
2007,08,16,08,01,17.90
2007,08,16,08,02,17.90
2007,08,16,08,03,17.90
2007,08,16,08,04,17.90
2007,08,16,08,05,17.80
2007,08,16,08,06,17.80
2007,08,16,08,07,17.80
2007,08,16,08,08,17.80
2007,08,16,08,09,17.80
2007,08,16,08,10,17.80
2007,08,16,08,11,17.80
2007,08,16,08,12,17.80
2007,08,16,08,13,17.80
2007,08,16,08,14,17.70
2007,08,16,08,15,17.70
2007,08,16,08,16,17.70
2007,08,16,08,17,17.70
2007,08,16,08,18,17.70
2007,08,16,08,19,17.70
2007,08,16,08,20,17.70
2007,08,16,08,21,17.70
2007,08,16,08,22,17.60
2007,08,16,08,23,17.60
2007,08,16,08,24,17.60
2007,08,16,08,25,17.60
2007,08,16,08,26,17.60
2007,08,16,08,27,17.60
2007,08,16,08,28,17.50
2007,08,16,08,29,17.50
2007,08,16,08,30,17.50
2007,08,16,08,31,17.50
2007,08,16,08,32,17.50
2007,08,16,08,33,17.50
2007,08,16,08,34,17.50
2007,08,16,08,35,17.50
2007,08,16,08,36,17.60
2007,08,16,08,37,17.60
2007,08,16,08,38,17.70
2007,08,16,08,39,17.70
2007,08,16,08,40,17.70
2007,08,16,08,41,17.70
2007,08,16,08,42,17.70
2007,08,16,08,43,17.70
2007,08,16,08,44,17.70
2007,08,16,08,45,17.70
2007,08,16,08,46,17.70
2007,08,16,08,47,17.70
2007,08,16,08,48,17.70
2007,08,16,08,49,17.70
2007,08,16,08,50,17.70
2007,08,16,08,51,17.70
2007,08,16,08,52,17.70
2007,08,16,08,53,17.80
2007,08,16,08,54,17.80
2007,08,16,08,55,17.80
2007,08,16,08,56,17.80
2007,08,16,08,57,17.80
2007,08,16,08,58,17.90
2007,08,16,08,59,17.90
2007,08,16,09,00,17.90
2007,08,16,09,01,17.90
2007,08,16,09,02,17.90
2007,08,16,09,03,17.90
2007,08,16,09,04,17.90
2007,08,16,09,05,17.90
2007,08,16,09,06,17.90
2007,08,16,09,07,17.90
2007,08,16,09,08,17.90
2007,08,16,09,09,17.90
2007,08,16,09,10,17.90
2007,08,16,09,11,17.90
2007,08,16,09,12,17.90
2007,08,16,09,13,17.90
2007,08,16,09,14,17.90
2007,08,16,09,15,17.90
2007,08,16,09,16,17.90
2007,08,16,09,17,18.10
2007,08,16,09,18,18.10
2007,08,16,09,19,18.10
2007,08,16,09,20,18.10
2007,08,16,09,21,18.10
2007,08,16,09,22,18.10
2007,08,16,09,23,18.20
2007,08,16,09,24,18.20
2007,08,16,09,25,18.20
2007,08,16,09,26,18.10
2007,08,16,09,27,18.10
2007,08,16,09,28,18.10
2007,08,16,09,29,18.10
2007,08,16,09,30,18.10
2007,08,16,09,31,18.10
2007,08,16,09,32,18.10
2007,08,16,09,33,18.10
2007,08,16,09,34,18.10
2007,08,16,09,35,18.10
2007,08,16,09,36,18.10
2007,08,16,09,37,18.10
2007,08,16,09,38,18.10
2007,08,16,09,39,18.10
2007,08,16,09,40,18.10
2007,08,16,09,41,18.10
2007,08,16,09,42,18.10
2007,08,16,09,43,18.20
2007,08,16,09,44,18.20
2007,08,16,09,45,18.20
2007,08,16,09,46,18.20
2007,08,16,09,47,18.20
2007,08,16,09,48,18.20
2007,08,16,09,49,18.20
2007,08,16,09,50,18.20
2007,08,16,09,51,18.20
2007,08,16,09,52,18.20
2007,08,16,09,53,18.20
2007,08,16,09,54,18.20
2007,08,16,09,55,18.20
2007,08,16,09,56,18.20
2007,08,16,09,57,18.20
2007,08,16,09,58,18.20
2007,08,16,09,59,18.20
2007,08,16,10,00,18.20
2007,08,16,10,01,18.20
2007,08,16,10,02,18.20
2007,08,16,10,03,18.20
2007,08,16,10,04,18.20
2007,08,16,10,05,18.20
2007,08,16,10,06,18.20
2007,08,16,10,07,18.20
2007,08,16,10,08,18.20
2007,08,16,10,09,18.10
2007,08,16,10,10,18.10
2007,08,16,10,11,18.10
2007,08,16,10,12,18.10
2007,08,16,10,13,18.10
2007,08,16,10,14,18.10
2007,08,16,10,15,18.10
2007,08,16,10,16,18.10
2007,08,16,10,17,18.10
2007,08,16,10,18,18.20
2007,08,16,10,19,18.20
2007,08,16,10,20,18.20
2007,08,16,10,21,18.20
2007,08,16,10,22,18.20
2007,08,16,10,23,18.20
2007,08,16,10,24,18.20
2007,08,16,10,25,18.20
2007,08,16,10,26,18.20
2007,08,16,10,27,18.20
2007,08,16,10,28,18.20
2007,08,16,10,29,18.20
2007,08,16,10,30,18.20
2007,08,16,10,31,18.20
2007,08,16,10,32,18.20
2007,08,16,10,33,18.20
2007,08,16,10,34,18.30
2007,08,16,10,35,18.30
2007,08,16,10,36,18.30
2007,08,16,10,37,18.30
2007,08,16,10,38,18.30
2007,08,16,10,39,18.40
2007,08,16,10,40,18.40
2007,08,16,10,41,18.40
2007,08,16,10,42,18.40
2007,08,16,10,43,18.50
2007,08,16,10,44,18.50
2007,08,16,10,45,18.60
2007,08,16,10,46,18.60
2007,08,16,10,47,18.70
2007,08,16,10,48,18.70
2007,08,16,10,49,18.80
2007,08,16,10,50,18.80
2007,08,16,10,51,18.80
2007,08,16,10,52,18.80
2007,08,16,10,53,18.90
2007,08,16,10,54,18.90
2007,08,16,10,55,18.90
2007,08,16,10,56,18.90
2007,08,16,10,57,18.90
2007,08,16,10,58,18.90
2007,08,16,10,59,18.80
2007,08,16,11,00,18.80
2007,08,16,11,01,18.90
2007,08,16,11,02,18.90
2007,08,16,11,03,18.90
2007,08,16,11,04,18.90
2007,08,16,11,05,18.90
2007,08,16,11,06,18.90
2007,08,16,11,07,18.90
2007,08,16,11,08,19.00
2007,08,16,11,09,19.10
2007,08,16,11,10,19.10
2007,08,16,11,11,19.10
2007,08,16,11,12,19.10
2007,08,16,11,13,19.10
2007,08,16,11,14,19.10
2007,08,16,11,15,19.20
2007,08,16,11,16,19.20
2007,08,16,11,17,19.30
2007,08,16,11,18,19.40
2007,08,16,11,19,19.40
2007,08,16,11,20,19.50
2007,08,16,11,21,19.50
2007,08,16,11,22,19.60
2007,08,16,11,23,19.60
2007,08,16,11,24,19.70
2007,08,16,11,25,19.70
2007,08,16,11,26,19.70
2007,08,16,11,27,19.60
2007,08,16,11,28,19.60
2007,08,16,11,29,19.70
2007,08,16,11,30,19.70
2007,08,16,11,31,19.70
2007,08,16,11,32,19.80
2007,08,16,11,33,19.80
2007,08,16,11,34,19.90
2007,08,16,11,35,19.90
2007,08,16,11,36,19.90
2007,08,16,11,37,19.90
2007,08,16,11,38,19.90
2007,08,16,11,39,19.90
2007,08,16,11,40,19.90
2007,08,16,11,41,19.80
2007,08,16,11,42,19.80
2007,08,16,11,43,19.80
2007,08,16,11,44,19.80
2007,08,16,11,45,19.80
2007,08,16,11,46,19.80
2007,08,16,11,47,19.80
2007,08,16,11,48,19.80
2007,08,16,11,49,19.80
2007,08,16,11,50,19.90
2007,08,16,11,51,19.90
2007,08,16,11,52,19.90
2007,08,16,11,53,19.90
2007,08,16,11,54,20.00
2007,08,16,11,55,20.10
2007,08,16,11,56,20.10
2007,08,16,11,57,20.10
2007,08,16,11,58,20.10
2007,08,16,11,59,20.10
2007,08,16,12,00,20.10
2007,08,16,12,01,20.10
2007,08,16,12,02,20.10
2007,08,16,12,03,20.10
2007,08,16,12,04,20.10
2007,08,16,12,05,20.10
2007,08,16,12,06,20.10
2007,08,16,12,07,20.10
2007,08,16,12,08,20.10
2007,08,16,12,09,20.00
2007,08,16,12,10,19.90
2007,08,16,12,11,19.90
2007,08,16,12,12,19.90
2007,08,16,12,13,19.80
2007,08,16,12,14,19.80
2007,08,16,12,15,19.80
2007,08,16,12,16,19.80
2007,08,16,12,17,19.80
2007,08,16,12,18,19.80
2007,08,16,12,19,19.80
2007,08,16,12,20,19.80
2007,08,16,12,21,19.80
2007,08,16,12,22,19.80
2007,08,16,12,23,19.80
2007,08,16,12,24,19.90
2007,08,16,12,25,19.90
2007,08,16,12,26,19.90
2007,08,16,12,27,19.90
2007,08,16,12,28,19.90
2007,08,16,12,29,20.00
2007,08,16,12,30,20.10
2007,08,16,12,31,20.20
2007,08,16,12,32,20.20
2007,08,16,12,33,20.20
2007,08,16,12,34,20.30
2007,08,16,12,35,20.40
2007,08,16,12,36,20.40
2007,08,16,12,37,20.40
2007,08,16,12,38,20.40
2007,08,16,12,39,20.50
2007,08,16,12,40,20.50
2007,08,16,12,41,20.50
2007,08,16,12,42,20.60
2007,08,16,12,43,20.70
2007,08,16,12,44,20.80
2007,08,16,12,45,20.90
2007,08,16,12,46,20.90
2007,08,16,12,47,20.90
2007,08,16,12,48,20.90
2007,08,16,12,49,20.90
2007,08,16,12,50,21.00
2007,08,16,12,51,21.10
2007,08,16,12,52,21.20
2007,08,16,12,53,21.30
2007,08,16,12,54,21.30
2007,08,16,12,55,21.30
2007,08,16,12,56,21.30
2007,08,16,12,57,21.30
2007,08,16,12,58,21.30
2007,08,16,12,59,21.30
2007,08,16,13,00,21.30
2007,08,16,13,01,21.30
2007,08,16,13,02,21.30
2007,08,16,13,03,21.30
2007,08,16,13,04,21.40
2007,08,16,13,05,21.40
2007,08,16,13,06,21.50
2007,08,16,13,07,21.70
2007,08,16,13,08,21.90
2007,08,16,13,09,22.10
2007,08,16,13,10,22.20
2007,08,16,13,11,22.20
2007,08,16,13,12,22.20
2007,08,16,13,13,22.30
2007,08,16,13,14,22.30
2007,08,16,13,15,22.20
2007,08,16,13,16,22.20
2007,08,16,13,17,22.10
2007,08,16,13,18,22.10
2007,08,16,13,19,22.00
2007,08,16,13,20,21.90
2007,08,16,13,21,21.70
2007,08,16,13,22,21.60
2007,08,16,13,23,21.50
2007,08,16,13,24,21.30
2007,08,16,13,25,21.10
2007,08,16,13,26,21.00
2007,08,16,13,27,21.00
2007,08,16,13,28,21.00
2007,08,16,13,29,21.00
2007,08,16,13,30,21.00
2007,08,16,13,31,20.90
2007,08,16,13,32,20.80
2007,08,16,13,33,20.80
2007,08,16,13,34,20.70
2007,08,16,13,35,20.60
2007,08,16,13,36,20.60
2007,08,16,13,37,20.50
2007,08,16,13,38,20.50
2007,08,16,13,39,20.50
2007,08,16,13,40,20.50
2007,08,16,13,41,20.40
2007,08,16,13,42,20.40
2007,08,16,13,43,20.50
2007,08,16,13,44,20.50
2007,08,16,13,45,20.50
2007,08,16,13,46,20.50
2007,08,16,13,47,20.40
2007,08,16,13,48,20.50
2007,08,16,13,49,20.50
2007,08,16,13,50,20.50
2007,08,16,13,51,20.60
2007,08,16,13,52,20.60
2007,08,16,13,53,20.60
2007,08,16,13,54,20.60
2007,08,16,13,55,20.70
2007,08,16,13,56,20.70
2007,08,16,13,57,20.70
2007,08,16,13,58,20.80
2007,08,16,13,59,20.80
2007,08,16,14,00,21.00
2007,08,16,14,01,21.00
2007,08,16,14,02,21.00
2007,08,16,14,03,21.00
2007,08,16,14,04,21.00
2007,08,16,14,05,20.90
2007,08,16,14,06,20.90
2007,08,16,14,07,20.90
2007,08,16,14,08,20.90
2007,08,16,14,09,21.00
2007,08,16,14,10,21.00
2007,08,16,14,11,21.20
2007,08,16,14,12,21.40
2007,08,16,14,13,21.60
2007,08,16,14,14,21.90
2007,08,16,14,15,22.30
2007,08,16,14,16,22.50
2007,08,16,14,17,22.70
2007,08,16,14,18,22.70
2007,08,16,14,19,22.80
2007,08,16,14,20,22.70
2007,08,16,14,21,22.60
2007,08,16,14,22,22.50
2007,08,16,14,23,22.40
2007,08,16,14,24,22.10
2007,08,16,14,25,21.70
2007,08,16,14,26,21.40
2007,08,16,14,27,21.30
2007,08,16,14,28,21.30
2007,08,16,14,29,21.30
2007,08,16,14,30,21.30
2007,08,16,14,31,21.30
2007,08,16,14,32,21.30
2007,08,16,14,33,21.50
2007,08,16,14,34,21.70
2007,08,16,14,35,21.90
2007,08,16,14,36,21.90
2007,08,16,14,37,21.90
2007,08,16,14,38,21.80
2007,08,16,14,39,21.70
2007,08,16,14,40,21.60
2007,08,16,14,41,21.40
2007,08,16,14,42,21.20
2007,08,16,14,43,20.90
2007,08,16,14,44,20.70
2007,08,16,14,45,20.50
2007,08,16,14,46,20.40
2007,08,16,14,47,20.30
2007,08,16,14,48,20.20
2007,08,16,14,49,20.20
2007,08,16,14,50,20.20
2007,08,16,14,51,20.10
2007,08,16,14,52,20.10
2007,08,16,14,53,20.20
2007,08,16,14,54,20.20
2007,08,16,14,55,20.30
2007,08,16,14,56,20.30
2007,08,16,14,57,20.40
2007,08,16,14,58,20.50
2007,08,16,14,59,20.50
2007,08,16,15,00,20.50
2007,08,16,15,01,20.40
2007,08,16,15,02,20.30
2007,08,16,15,03,20.20
2007,08,16,15,04,20.20
2007,08,16,15,05,20.20
2007,08,16,15,06,20.20
2007,08,16,15,07,20.30
2007,08,16,15,08,20.40
2007,08,16,15,09,20.50
2007,08,16,15,10,20.60
2007,08,16,15,11,20.60
2007,08,16,15,12,20.60
2007,08,16,15,13,20.50
2007,08,16,15,14,20.50
2007,08,16,15,15,20.50
2007,08,16,15,16,20.40
2007,08,16,15,17,20.40
2007,08,16,15,18,20.40
2007,08,16,15,19,20.40
2007,08,16,15,20,20.40
2007,08,16,15,21,20.30
2007,08,16,15,22,20.20
2007,08,16,15,23,20.20
2007,08,16,15,24,20.10
2007,08,16,15,25,20.00
2007,08,16,15,26,19.90
2007,08,16,15,27,19.80
2007,08,16,15,28,19.80
2007,08,16,15,29,19.80
2007,08,16,15,30,19.80
2007,08,16,15,31,19.80
2007,08,16,15,32,19.70
2007,08,16,15,33,19.70
2007,08,16,15,34,19.70
2007,08,16,15,35,19.60
2007,08,16,15,36,19.60
2007,08,16,15,37,19.50
2007,08,16,15,38,19.50
2007,08,16,15,39,19.50
2007,08,16,15,40,19.50
2007,08,16,15,41,19.50
2007,08,16,15,42,19.50
2007,08,16,15,43,19.60
2007,08,16,15,44,19.50
2007,08,16,15,45,19.50
2007,08,16,15,46,19.50
2007,08,16,15,47,19.50
2007,08,16,15,48,19.50
2007,08,16,15,49,19.50
2007,08,16,15,50,19.60
2007,08,16,15,51,19.60
2007,08,16,15,52,19.60
2007,08,16,15,53,19.60
2007,08,16,15,54,19.60
2007,08,16,15,55,19.60
2007,08,16,15,56,19.50
2007,08,16,15,57,19.50
2007,08,16,15,58,19.50
2007,08,16,15,59,19.50
2007,08,16,16,00,19.50
2007,08,16,16,01,19.50
2007,08,16,16,02,19.50
2007,08,16,16,03,19.50
2007,08,16,16,04,19.50
2007,08,16,16,05,19.40
2007,08,16,16,06,19.30
2007,08,16,16,07,19.30
2007,08,16,16,08,19.20
2007,08,16,16,09,19.10
2007,08,16,16,10,19.10
2007,08,16,16,11,19.10
2007,08,16,16,12,19.10
2007,08,16,16,13,19.10
2007,08,16,16,14,19.10
2007,08,16,16,15,19.10
2007,08,16,16,16,19.10
2007,08,16,16,17,19.10
2007,08,16,16,18,19.10
2007,08,16,16,19,19.10
2007,08,16,16,20,19.10
2007,08,16,16,21,19.10
2007,08,16,16,22,19.10
2007,08,16,16,23,19.10
2007,08,16,16,24,19.10
2007,08,16,16,25,18.90
2007,08,16,16,26,18.90
2007,08,16,16,27,18.90
2007,08,16,16,28,18.90
2007,08,16,16,29,18.90
2007,08,16,16,30,18.90
2007,08,16,16,31,18.80
2007,08,16,16,32,18.80
2007,08,16,16,33,18.70
2007,08,16,16,34,18.70
2007,08,16,16,35,18.70
2007,08,16,16,36,18.60
2007,08,16,16,37,18.60
2007,08,16,16,38,18.60
2007,08,16,16,39,18.60
2007,08,16,16,40,18.60
2007,08,16,16,41,18.60
2007,08,16,16,42,18.60
2007,08,16,16,43,18.60
2007,08,16,16,44,18.60
2007,08,16,16,45,18.60
2007,08,16,16,46,18.60
2007,08,16,16,47,18.50
2007,08,16,16,48,18.50
2007,08,16,16,49,18.40
2007,08,16,16,50,18.30
2007,08,16,16,51,18.10
2007,08,16,16,52,17.90
2007,08,16,16,53,17.70
2007,08,16,16,54,17.50
2007,08,16,16,55,17.40
2007,08,16,16,56,17.30
2007,08,16,16,57,17.30
2007,08,16,16,58,17.20
2007,08,16,16,59,17.20
2007,08,16,17,00,17.20
2007,08,16,17,01,17.20
2007,08,16,17,02,17.20
2007,08,16,17,03,17.10
2007,08,16,17,04,17.00
2007,08,16,17,05,17.00
2007,08,16,17,06,16.90
2007,08,16,17,07,16.90
2007,08,16,17,08,16.90
2007,08,16,17,09,17.00
2007,08,16,17,10,17.00
2007,08,16,17,11,17.00
2007,08,16,17,12,17.10
2007,08,16,17,13,17.10
2007,08,16,17,14,17.10
2007,08,16,17,15,17.10
2007,08,16,17,16,17.00
2007,08,16,17,17,17.10
2007,08,16,17,18,17.20
2007,08,16,17,19,17.20